Regional Weather Roundup
Issued by NWS

Home | Current Version | Previous Version | Graphics & Text | Print | Product List | Glossary On
Versions: 1 2 3 4 5 6 7 8 9 10 11 12 13 14 15 16 17 18 19 20 21 22 23 24 25 26 27 28 29 30 31 32 33 34 35 36 37 38 39 40 41 42 43 44 45 46 47 48 49 50
000
ASUS43 KDTX 302110
RWRMI
MICHIGAN HOURLY REGIONAL WEATHER ROUNDUP
NATIONAL WEATHER SERVICE DETROIT/PONTIAC MI
500 PM EDT TUE JUN 30 2015

NOTE: "FAIR" INDICATES FEW OR NO CLOUDS BELOW 12,000 FEET WITH NO
SIGNIFICANT WEATHER AND/OR OBSTRUCTION TO VISIBILITY.

MIZ047>049-052>055-059>063-066>070-074>076-081>083-302200-
SOUTHEAST LOWER MICHIGAN

CITY           SKY/WX    TMP DP  RH WIND       PRES   REMARKS
ADRIAN         PTSUNNY   75  62  64 W7        29.76F
ALMA           LGT RAIN  67  64  89 W3        29.77F
ANN ARBOR      PTSUNNY   73  62  68 W7        29.75F
BAD AXE        PTSUNNY   67  58  73 E3        29.77F
CARO           PTSUNNY   71  61  70 NE5       29.75F
DETROIT CITY   PTSUNNY   73  62  68 SE5       29.74F
DETROIT        CLOUDY    77  61  57 W10       29.75F
FLINT          CLOUDY    74  59  59 NE6       29.75F
GROSSE ILE     PTSUNNY   75  63  64 SW7       29.74S
HILLSDALE      PTSUNNY   74  61  63 W6        29.76F
HOWELL         LGT RAIN  65  63  92 CALM      29.76S

CITY           SKY/WX    TMP DP  RH WIND       PRES   REMARKS
JACKSON        PTSUNNY   72  62  71 SW10      29.75F
LAMBERTVILLE   CLOUDY    76  63  64 SW5       29.76F
LANSING        PTSUNNY   67  63  87 CALM      29.77S THUNDER
LAPEER         CLOUDY    70  58  65 CALM      29.76F
MASON          HVY RAIN  64  62  91 NE3       29.76F
MONROE         PTSUNNY   74  63  68 SW8       29.75S
MT. CLEMENS    LGT RAIN  67  64  88 NE6       29.73F
PONTIAC        PTSUNNY   73  59  61 W9        29.74F
PORT HOPE        N/A     63  56  78 CALM      29.77F
PORT HURON     CLOUDY    68  63  83 NE6       29.75F
TRI CITIES     LGT RAIN  69  61  75 NE6       29.77S
MIDLAND        LGT RAIN  68  59  71 E3        29.76S
TROY           PTSUNNY   76  59  55 W7        29.76S
SAGINAW HB     CLOUDY    72  57  60 N7        29.75F
$$
MIZ043>046-050>051-056>058-064>065-071>073-077>080-302200-
SOUTHWEST LOWER MICHIGAN

CITY           SKY/WX    TMP DP  RH WIND       PRES   REMARKS
BATTLE CREEK   MOSUNNY   74  60  61 W17       29.78R
BENTON HARBOR  MOSUNNY   70  61  73 W12       29.81F
BIG RAPIDS     PTSUNNY   68  59  74 CALM      29.78S
COLDWATER      MOSUNNY   73  61  64 W15       29.76F
FREMONT        CLOUDY    67  63  87 N5        29.78S
HOLLAND        CLOUDY    65  61  87 W7        29.80S FOG
GRAND RAPIDS   PTSUNNY   71  62  73 W10       29.76F
IONIA          PTSUNNY   71  62  74 NW3       29.76F
KALAMAZOO      MOSUNNY   73  60  63 NW10G18   29.78F
LUDINGTON      CLOUDY    62  57  83 N10       29.82S
MARSHALL       CLOUDY    72  62  72 W9        29.75S
MOUNT PLEASANT CLOUDY    69  61  76 CALM      29.76F
MUSKEGON       CLOUDY    69  61  75 W9        29.78F
SOUTH HAVEN    CLOUDY    66  60  81 W10G18    29.81S
$$
MIZ016>042-302200-
NORTHERN LOWER MICHIGAN

CITY           SKY/WX    TMP DP  RH WIND       PRES   REMARKS
ALPENA         LGT RAIN  65  61  87 W5        29.81S
BEAVER ISLAND  CLOUDY    57  52  82 N8        29.83S
BELLAIRE       MOSUNNY   67  57  72 NW10G21   29.80R
CADILLAC       CLOUDY    65  60  83 NW10      29.79S
CHARLEVOIX     CLOUDY    60  58  92 N7        29.85R
FRANKFORT      CLOUDY    57  50  77 N8        29.83F
GAYLORD        LGT RAIN  63  61  93 VRB3      29.82R
GRAYLING       CLOUDY    66  61  84 E8        29.81S
HARBOR SPRINGS CLOUDY    65  62  87 N5        29.80S
HOUGHTON LAKE  CLOUDY    67  60  78 E12       29.80S
MANISTEE       CLOUDY   N/A N/A N/A N15G21    29.82S
OSCODA         CLOUDY    68  58  71 NE6       29.79F
PELLSTON       LGT RAIN  65  61  87 NW8       29.81S
ROGERS CITY    LGT RAIN  64  61  91 S6        29.82S
TRAVERSE CITY  CLOUDY    59  55  87 N13       29.81R
$$
MIZ007>008-015-302200-
EASTERN UPPER MICHIGAN

CITY           SKY/WX    TMP DP  RH WIND       PRES   REMARKS
KINROSS        CLOUDY    57  57 100 NW5       29.83R
MACKINAC ISLAN LGT RAIN  63  63 100 NW5       29.80S
NEWBERRY       CLOUDY    53  51  94 W8        29.84S
S. S. MARIE    LGT RAIN  57  54  89 W8        29.83R
MUNISING         N/A     47  44  90 NW18      29.91R
$$
MIZ004>006-011>014-085-302200-
CENTRAL UPPER MICHIGAN

CITY           SKY/WX    TMP DP  RH WIND       PRES   REMARKS
MANISTIQUE     PTSUNNY   55  48  76 NW16G26   29.85R
ESCANABA       CLOUDY   N/A N/A N/A N14G20    29.87R
MENOMINEE      CLOUDY    64  52  63 N15       29.85R
SAWYER-GWINN   CLOUDY    48  43  81 N13G21    29.92R
$$
MIZ001>003-009>011-084-302200-
WESTERN UPPER MICHIGAN

CITY           SKY/WX    TMP DP  RH WIND       PRES   REMARKS
IRON MOUNTAIN  CLOUDY    59  49  69 N16       29.90R
HOUGHTON       MOSUNNY   58  40  51 NE13G18   29.96F
COPPER HARBOR    N/A     50  41  71 N9        29.96S
IRONWOOD       MOSUNNY   55  46  71 N7        29.96S
$$

ABBREVIATIONS USED IN REMARKS
   TC - TEMPERATURE IN CELSIUS
  WCI - WIND CHILL INDEX
   HX - HEAT INDEX
  VSB - VISIBILITY



USA.gov is the U.S. government's official web portal to all federal, state and local government web resources and services.